#Datum;Uhrzeit;WR;Pac;DaySum;Status;WR;Pac;DaySum;Status;Pdc1;Udc;Temp;WR;Pac;DaySum;Status;Pdc1;Udc;Temp;WR;Pac;DaySum;Status;Pdc1;Udc;Temp;WR;Pac;DaySum;Status;Pdc1;Pdc2;Udc1;Udc2;Temp;WR;Pac;DaySum;Status;Pdc1;Pdc2;Udc1;Udc2;Temp;WR;Pac;DaySum;Status;Pdc1;Udc;Temp;WR;Pac;DaySum;Status;Pdc1;Udc;Temp;WR;Pac;DaySum;Status;Pdc1;Udc;Temp
05.10.19;23:55:00;1;540;15328;0;2;0;9503;0;0;0;0;3;0;6004;0;0;0;0;4;0;8281;0;0;0;0;5;0;19784;0;0;0;0;0;0;6;0;14542;0;0;0;0;0;0;7;0;11504;0;0;0;0;8;0;11151;0;0;0;0;9;0;6106;0;0;0;0
05.10.19;23:50:00;1;544;15283;0;2;0;9503;0;0;0;0;3;0;6004;0;0;0;0;4;0;8281;0;0;0;0;5;0;19784;0;0;0;0;0;0;6;0;14542;0;0;0;0;0;0;7;0;11504;0;0;0;0;8;0;11151;0;0;0;0;9;0;6106;0;0;0;0
05.10.19;23:45:00;1;540;15238;0;2;0;9503;0;0;0;0;3;0;6004;0;0;0;0;4;0;8281;0;0;0;0;5;0;19784;0;0;0;0;0;0;6;0;14542;0;0;0;0;0;0;7;0;11504;0;0;0;0;8;0;11151;0;0;0;0;9;0;6106;0;0;0;0
05.10.19;23:40:00;1;500;15192;0;2;0;9503;0;0;0;0;3;0;6004;0;0;0;0;4;0;8281;0;0;0;0;5;0;19784;0;0;0;0;0;0;6;0;14542;0;0;0;0;0;0;7;0;11504;0;0;0;0;8;0;11151;0;0;0;0;9;0;6106;0;0;0;0
05.10.19;23:35:00;1;511;15150;0;2;0;9503;0;0;0;0;3;0;6004;0;0;0;0;4;0;8281;0;0;0;0;5;0;19784;0;0;0;0;0;0;6;0;14542;0;0;0;0;0;0;7;0;11504;0;0;0;0;8;0;11151;0;0;0;0;9;0;6106;0;0;0;0
05.10.19;23:30:00;1;430;15111;0;2;0;9503;0;0;0;0;3;0;6004;0;0;0;0;4;0;8281;0;0;0;0;5;0;19784;0;0;0;0;0;0;6;0;14542;0;0;0;0;0;0;7;0;11504;0;0;0;0;8;0;11151;0;0;0;0;9;0;6106;0;0;0;0
05.10.19;23:25:00;1;467;15074;0;2;0;9503;0;0;0;0;3;0;6004;0;0;0;0;4;0;8281;0;0;0;0;5;0;19784;0;0;0;0;0;0;6;0;14542;0;0;0;0;0;0;7;0;11504;0;0;0;0;8;0;11151;0;0;0;0;9;0;6106;0;0;0;0
05.10.19;23:20:00;1;389;15035;0;2;0;9503;0;0;0;0;3;0;6004;0;0;0;0;4;0;8281;0;0;0;0;5;0;19784;0;0;0;0;0;0;6;0;14542;0;0;0;0;0;0;7;0;11504;0;0;0;0;8;0;11151;0;0;0;0;9;0;6106;0;0;0;0
05.10.19;23:15:00;1;386;15003;0;2;0;9503;0;0;0;0;3;0;6004;0;0;0;0;4;0;8281;0;0;0;0;5;0;19784;0;0;0;0;0;0;6;0;14542;0;0;0;0;0;0;7;0;11504;0;0;0;0;8;0;11151;0;0;0;0;9;0;6106;0;0;0;0
05.10.19;23:10:00;1;414;14971;0;2;0;9503;0;0;0;0;3;0;6004;0;0;0;0;4;0;8281;0;0;0;0;5;0;19784;0;0;0;0;0;0;6;0;14542;0;0;0;0;0;0;7;0;11504;0;0;0;0;8;0;11151;0;0;0;0;9;0;6106;0;0;0;0
05.10.19;23:05:00;1;430;14936;0;2;0;9503;0;0;0;0;3;0;6004;0;0;0;0;4;0;8281;0;0;0;0;5;0;19784;0;0;0;0;0;0;6;0;14542;0;0;0;0;0;0;7;0;11504;0;0;0;0;8;0;11151;0;0;0;0;9;0;6106;0;0;0;0
05.10.19;23:00:00;1;425;14900;0;2;0;9503;0;0;0;0;3;0;6004;0;0;0;0;4;0;8281;0;0;0;0;5;0;19784;0;0;0;0;0;0;6;0;14542;0;0;0;0;0;0;7;0;11504;0;0;0;0;8;0;11151;0;0;0;0;9;0;6106;0;0;0;0
05.10.19;22:55:00;1;492;14864;0;2;0;9503;0;0;0;0;3;0;6004;0;0;0;0;4;0;8281;0;0;0;0;5;0;19784;2;0;0;0;0;0;6;0;14542;2;0;0;0;0;0;7;0;11504;0;0;0;0;8;0;11151;0;0;0;0;9;0;6106;0;0;0;0
05.10.19;22:50:00;1;438;14830;0;2;0;9503;0;0;0;0;3;0;6004;0;0;0;0;4;0;8281;0;0;0;0;5;0;19784;2;0;0;0;0;0;6;0;14542;2;0;0;0;0;0;7;0;11504;0;0;0;0;8;0;11151;0;0;0;0;9;0;6106;0;0;0;0
05.10.19;22:45:00;1;406;14793;0;2;0;9503;0;0;0;0;3;0;6004;0;0;0;0;4;0;8281;0;0;0;0;5;0;19784;2;0;0;0;0;0;6;0;14542;2;0;0;0;0;0;7;0;11504;0;0;0;0;8;0;11151;0;0;0;0;9;0;6106;0;0;0;0
05.10.19;22:40:00;1;379;14759;0;2;0;9503;0;0;0;0;3;0;6004;0;0;0;0;4;0;8281;0;0;0;0;5;0;19784;2;0;0;0;0;0;6;0;14542;2;0;0;0;0;0;7;0;11504;0;0;0;0;8;0;11151;0;0;0;0;9;0;6106;0;0;0;0
05.10.19;22:35:00;1;380;14727;0;2;0;9503;0;0;0;0;3;0;6004;0;0;0;0;4;0;8281;0;0;0;0;5;0;19784;2;0;0;0;0;0;6;0;14542;2;0;0;0;0;0;7;0;11504;0;0;0;0;8;0;11151;0;0;0;0;9;0;6106;0;0;0;0
05.10.19;22:30:00;1;391;14696;0;2;0;9503;0;0;0;0;3;0;6004;0;0;0;0;4;0;8281;0;0;0;0;5;0;19784;2;0;0;0;0;0;6;0;14542;2;0;0;0;0;0;7;0;11504;0;0;0;0;8;0;11151;0;0;0;0;9;0;6106;0;0;0;0
05.10.19;22:25:00;1;388;14663;0;2;0;9503;0;0;0;0;3;0;6004;0;0;0;0;4;0;8281;0;0;0;0;5;0;19784;2;0;0;0;0;0;6;0;14542;2;0;0;0;0;0;7;0;11504;0;0;0;0;8;0;11151;0;0;0;0;9;0;6106;0;0;0;0
05.10.19;22:20:00;1;425;14631;0;2;0;9503;0;0;0;0;3;0;6004;0;0;0;0;4;0;8281;0;0;0;0;5;0;19784;2;0;0;0;0;0;6;0;14542;2;0;0;0;0;0;7;0;11504;0;0;0;0;8;0;11151;0;0;0;0;9;0;6106;0;0;0;0
05.10.19;22:15:00;1;521;14595;0;2;0;9503;0;0;0;0;3;0;6004;0;0;0;0;4;0;8281;0;0;0;0;5;0;19784;2;0;0;0;0;0;6;0;14542;2;0;0;0;0;0;7;0;11504;0;0;0;0;8;0;11151;0;0;0;0;9;0;6106;0;0;0;0
05.10.19;22:10:00;1;520;14551;0;2;0;9503;0;0;0;0;3;0;6004;0;0;0;0;4;0;8281;0;0;0;0;5;0;19784;2;0;0;0;0;0;6;0;14542;2;0;0;0;0;0;7;0;11504;0;0;0;0;8;0;11151;0;0;0;0;9;0;6106;0;0;0;0
05.10.19;22:05:00;1;450;14507;0;2;0;9503;0;0;0;0;3;0;6004;0;0;0;0;4;0;8281;0;0;0;0;5;0;19784;2;0;0;0;0;0;6;0;14542;2;0;0;0;0;0;7;0;11504;0;0;0;0;8;0;11151;0;0;0;0;9;0;6106;0;0;0;0
05.10.19;22:00:00;1;456;14469;0;2;0;9503;0;0;0;0;3;0;6004;0;0;0;0;4;0;8281;0;0;0;0;5;0;19784;2;0;0;0;0;0;6;0;14542;2;0;0;0;0;0;7;0;11504;0;0;0;0;8;0;11151;0;0;0;0;9;0;6106;0;0;0;0
05.10.19;21:55:00;1;452;14432;0;2;0;9503;0;0;0;0;3;0;6004;0;0;0;0;4;0;8281;0;0;0;0;5;0;19784;2;0;0;0;0;0;6;0;14542;2;0;0;0;0;0;7;0;11504;0;0;0;0;8;0;11151;0;0;0;0;9;0;6106;0;0;0;0
05.10.19;21:50:00;1;466;14393;0;2;0;9503;0;0;0;0;3;0;6004;0;0;0;0;4;0;8281;0;0;0;0;5;0;19784;2;0;0;0;0;0;6;0;14542;2;0;0;0;0;0;7;0;11504;0;0;0;0;8;0;11151;0;0;0;0;9;0;6106;0;0;0;0
05.10.19;21:45:00;1;473;14355;0;2;0;9503;0;0;0;0;3;0;6004;0;0;0;0;4;0;8281;0;0;0;0;5;0;19784;2;0;0;0;0;0;6;0;14542;2;0;0;0;0;0;7;0;11504;0;0;0;0;8;0;11151;0;0;0;0;9;0;6106;0;0;0;0
05.10.19;21:40:00;1;454;14316;0;2;0;9503;0;0;0;0;3;0;6004;0;0;0;0;4;0;8281;0;0;0;0;5;0;19784;2;0;0;0;0;0;6;0;14542;2;0;0;0;0;0;7;0;11504;0;0;0;0;8;0;11151;0;0;0;0;9;0;6106;0;0;0;0
05.10.19;21:35:00;1;465;14276;0;2;0;9503;0;0;0;0;3;0;6004;0;0;0;0;4;0;8281;0;0;0;0;5;0;19784;2;0;0;0;0;0;6;0;14542;2;0;0;0;0;0;7;0;11504;0;0;0;0;8;0;11151;0;0;0;0;9;0;6106;0;0;0;0
05.10.19;21:30:00;1;445;14238;0;2;0;9503;0;0;0;0;3;0;6004;0;0;0;0;4;0;8281;0;0;0;0;5;0;19784;2;0;0;0;0;0;6;0;14542;2;0;0;0;0;0;7;0;11504;0;0;0;0;8;0;11151;0;0;0;0;9;0;6106;0;0;0;0
05.10.19;21:25:00;1;436;14201;0;2;0;9503;0;0;0;0;3;0;6004;0;0;0;0;4;0;8281;0;0;0;0;5;0;19784;2;0;0;0;0;0;6;0;14542;2;0;0;0;0;0;7;0;11504;0;0;0;0;8;0;11151;0;0;0;0;9;0;6106;0;0;0;0
05.10.19;21:20:00;1;488;14164;0;2;0;9503;0;0;0;0;3;0;6004;0;0;0;0;4;0;8281;0;0;0;0;5;0;19784;2;0;0;0;0;0;6;0;14542;2;0;0;0;0;0;7;0;11504;0;0;0;0;8;0;11151;0;0;0;0;9;0;6106;0;0;0;0
05.10.19;21:15:00;1;435;14128;0;2;0;9503;0;0;0;0;3;0;6004;0;0;0;0;4;0;8281;0;0;0;0;5;0;19784;2;0;0;0;0;0;6;0;14542;2;0;0;0;0;0;7;0;11504;0;0;0;0;8;0;11151;0;0;0;0;9;0;6106;0;0;0;0
05.10.19;21:10:00;1;442;14092;0;2;0;9503;0;0;0;0;3;0;6004;0;0;0;0;4;0;8281;0;0;0;0;5;0;19784;2;0;0;0;0;0;6;0;14542;2;0;0;0;0;0;7;0;11504;0;0;0;0;8;0;11151;0;0;0;0;9;0;6106;0;0;0;0
05.10.19;21:05:00;1;444;14055;0;2;0;9503;0;0;0;0;3;0;6004;0;0;0;0;4;0;8281;0;0;0;0;5;0;19784;2;0;0;0;0;0;6;0;14542;2;0;0;0;0;0;7;0;11504;0;0;0;0;8;0;11151;0;0;0;0;9;0;6106;0;0;0;0
05.10.19;21:00:00;1;562;14018;0;2;0;9503;0;0;0;0;3;0;6004;0;0;0;0;4;0;8281;0;0;0;0;5;0;19784;2;0;0;0;0;0;6;0;14542;2;0;0;0;0;0;7;0;11504;0;0;0;0;8;0;11151;0;0;0;0;9;0;6106;0;0;0;0
05.10.19;20:55:00;1;442;13969;0;2;0;9503;0;0;0;0;3;0;6004;0;0;0;0;4;0;8281;0;0;0;0;5;0;19784;2;0;0;0;0;0;6;0;14542;2;0;0;0;0;0;7;0;11504;0;0;0;0;8;0;11151;0;0;0;0;9;0;6106;0;0;0;0
05.10.19;20:50:00;1;432;13933;0;2;0;9503;0;0;0;0;3;0;6004;0;0;0;0;4;0;8281;0;0;0;0;5;0;19784;2;0;0;0;0;0;6;0;14542;2;0;0;0;0;0;7;0;11504;0;0;0;0;8;0;11151;0;0;0;0;9;0;6106;0;0;0;0
05.10.19;20:45:00;1;471;13896;0;2;0;9503;0;0;0;0;3;0;6004;0;0;0;0;4;0;8281;0;0;0;0;5;0;19784;2;0;0;0;0;0;6;0;14542;2;0;0;0;0;0;7;0;11504;0;0;0;0;8;0;11151;0;0;0;0;9;0;6106;0;0;0;0
05.10.19;20:40:00;1;509;13856;0;2;0;9503;0;0;0;0;3;0;6004;0;0;0;0;4;0;8281;0;0;0;0;5;0;19784;2;0;0;0;0;0;6;0;14542;2;0;0;0;0;0;7;0;11504;0;0;0;0;8;0;11151;0;0;0;0;9;0;6106;0;0;0;0
05.10.19;20:35:00;1;531;13813;0;2;0;9503;0;0;0;0;3;0;6004;0;0;0;0;4;0;8281;0;0;0;0;5;0;19784;2;0;0;0;0;0;6;0;14542;2;0;0;0;0;0;7;0;11504;0;0;0;0;8;0;11151;0;0;0;0;9;0;6106;0;0;0;0
05.10.19;20:30:00;1;575;13768;0;2;0;9503;0;0;0;0;3;0;6004;0;0;0;0;4;0;8281;0;0;0;0;5;0;19784;2;0;0;0;0;0;6;0;14542;2;0;0;0;0;0;7;0;11504;0;0;0;0;8;0;11151;0;0;0;0;9;0;6106;0;0;0;0
05.10.19;20:25:00;1;601;13720;0;2;0;9503;0;0;0;0;3;0;6004;0;0;0;0;4;0;8281;0;0;0;0;5;0;19784;2;0;0;0;0;0;6;0;14542;2;0;0;0;0;0;7;0;11504;0;0;0;0;8;0;11151;0;0;0;0;9;0;6106;0;0;0;0
05.10.19;20:20:00;1;559;13669;0;2;0;9503;0;0;0;0;3;0;6004;0;0;0;0;4;0;8281;0;0;0;0;5;0;19784;2;0;0;0;0;0;6;0;14542;2;0;0;0;0;0;7;0;11504;0;0;0;0;8;0;11151;0;0;0;0;9;0;6106;0;0;0;0
05.10.19;20:15:00;1;518;13622;0;2;0;9503;0;0;0;0;3;0;6004;0;0;0;0;4;0;8281;0;0;0;0;5;0;19784;2;0;0;0;0;0;6;0;14542;2;0;0;0;0;0;7;0;11504;0;0;0;0;8;0;11151;0;0;0;0;9;0;6106;0;0;0;0
05.10.19;20:10:00;1;520;13579;0;2;0;9503;0;0;0;0;3;0;6004;0;0;0;0;4;0;8281;0;0;0;0;5;0;19784;2;0;0;0;0;0;6;0;14542;2;0;0;0;0;0;7;0;11504;0;0;0;0;8;0;11151;0;0;0;0;9;0;6106;0;0;0;0
05.10.19;20:05:00;1;540;13536;0;2;0;9503;0;0;0;0;3;0;6004;0;0;0;0;4;0;8281;0;0;0;0;5;0;19784;2;0;0;0;0;0;6;0;14542;2;0;0;0;0;0;7;0;11504;0;0;0;0;8;0;11151;0;0;0;0;9;0;6106;0;0;0;0
05.10.19;20:00:00;1;513;13491;0;2;0;9503;0;0;0;0;3;0;6004;0;0;0;0;4;0;8281;0;0;0;0;5;0;19784;2;0;0;0;0;0;6;0;14542;2;0;0;0;0;0;7;0;11504;0;0;0;0;8;0;11151;0;0;0;0;9;0;6106;0;0;0;0
05.10.19;19:55:00;1;539;13448;0;2;0;9503;0;0;0;0;3;0;6004;0;0;0;0;4;0;8281;0;0;0;0;5;0;19784;2;0;0;0;0;0;6;0;14542;2;0;0;0;0;0;7;0;11504;0;0;0;0;8;0;11151;0;0;0;0;9;0;6106;0;0;0;0
05.10.19;19:50:00;1;519;13401;0;2;0;9503;0;0;0;0;3;0;6004;0;0;0;0;4;0;8281;0;0;0;0;5;0;19784;2;0;0;0;0;0;6;0;14542;2;0;0;0;0;0;7;0;11504;0;0;0;0;8;0;11151;0;0;0;0;9;0;6106;0;0;0;0
05.10.19;19:45:00;1;536;13358;0;2;0;9503;0;0;0;0;3;0;6004;0;0;0;0;4;0;8281;0;0;0;0;5;0;19784;2;0;0;0;0;0;6;0;14542;2;0;0;0;0;0;7;0;11504;0;0;0;0;8;0;11151;0;0;0;0;9;0;6106;0;0;0;0
05.10.19;19:40:00;1;457;13314;0;2;0;9503;0;0;0;0;3;0;6004;0;0;0;0;4;0;8281;0;0;0;0;5;0;19784;2;0;0;0;0;0;6;0;14542;2;0;0;0;0;0;7;0;11504;0;0;0;0;8;0;11151;0;0;0;0;9;0;6106;0;0;0;0
05.10.19;19:35:00;1;446;13275;0;2;0;9503;0;0;0;0;3;0;6004;0;0;0;0;4;0;8281;0;0;0;0;5;0;19784;2;0;0;0;0;0;6;0;14542;2;0;0;0;0;0;7;0;11504;0;0;0;0;8;0;11151;0;0;0;0;9;0;6106;0;0;0;0
05.10.19;19:30:00;1;451;13238;0;2;0;9503;0;0;0;0;3;0;6004;0;0;0;0;4;0;8281;0;0;0;0;5;0;19784;2;0;0;0;0;0;6;0;14542;2;0;0;0;0;0;7;0;11504;0;0;0;0;8;0;11151;0;0;0;0;9;0;6106;0;0;0;0
05.10.19;19:25:00;1;991;13200;0;2;0;9503;0;0;0;0;3;0;6004;0;0;0;0;4;0;8281;0;0;0;0;5;0;19784;2;0;0;0;0;0;6;0;14542;2;0;0;0;0;0;7;0;11504;0;0;0;0;8;0;11151;0;0;0;0;9;0;6106;0;0;0;0
05.10.19;19:20:00;1;2499;13093;0;2;0;9503;0;0;0;0;3;0;6004;0;0;0;0;4;0;8281;0;0;0;0;5;0;19784;2;0;0;0;0;0;6;0;14542;2;0;0;0;0;0;7;0;11504;0;0;0;0;8;0;11151;0;0;0;0;9;0;6106;0;0;0;0
05.10.19;19:15:00;1;2563;12866;0;2;0;9503;0;0;0;0;3;0;6004;0;0;0;0;4;0;8281;0;0;0;0;5;0;19784;2;0;0;0;0;0;6;0;14542;2;0;0;0;0;0;7;0;11504;0;0;0;0;8;0;11151;0;0;0;0;9;0;6106;0;0;0;0
05.10.19;19:10:00;1;1263;12661;0;2;0;9503;0;0;0;0;3;0;6004;0;0;0;0;4;0;8281;0;0;0;0;5;0;19784;2;0;0;0;0;0;6;0;14542;2;0;0;0;0;0;7;0;11504;0;0;0;0;8;0;11151;0;0;0;0;9;0;6106;0;0;0;0
05.10.19;19:05:00;1;2454;12570;0;2;0;9503;0;0;0;0;3;0;6004;0;0;0;0;4;0;8281;0;0;0;0;5;0;19784;2;0;0;0;0;0;6;0;14542;2;0;0;0;0;0;7;0;11504;0;0;0;0;8;0;11151;0;0;0;0;9;0;6106;0;0;0;0
05.10.19;19:00:00;1;546;12418;0;2;0;9503;0;0;0;0;3;0;6004;0;0;0;0;4;0;8281;0;0;0;0;5;0;19784;2;0;0;0;0;0;6;0;14542;2;0;0;0;0;0;7;0;11504;0;0;0;0;8;0;11151;0;0;0;0;9;0;6106;0;0;0;0
05.10.19;18:55:00;1;550;12372;0;2;0;9503;0;0;0;0;3;0;6004;0;0;0;0;4;0;8281;0;0;0;0;5;0;19784;2;0;0;0;0;0;6;0;14542;2;0;0;0;0;0;7;0;11504;0;0;0;0;8;0;11151;0;0;0;0;9;0;6106;0;0;0;0
05.10.19;18:50:00;1;1612;12327;0;2;0;9503;0;0;0;0;3;0;6004;0;0;150;11;4;0;8281;0;0;0;0;5;0;19784;2;0;0;0;0;0;6;0;14542;2;0;0;0;0;0;7;0;11504;0;0;0;0;8;0;11151;0;0;0;0;9;0;6106;0;0;0;0
05.10.19;18:45:00;1;1127;12167;0;2;0;9503;6;0;274;18;3;0;6004;6;0;309;21;4;0;8281;0;0;58;15;5;0;19784;2;0;0;0;0;0;6;0;14542;2;0;0;0;0;0;7;0;11504;0;0;0;0;8;0;11151;0;0;0;0;9;0;6106;0;0;0;0
05.10.19;18:40:00;1;1391;12073;0;2;0;9503;6;0;304;18;3;0;6004;6;0;362;21;4;0;8281;1;0;94;19;5;0;19784;2;0;0;113;112;16;6;0;14542;2;1;0;27;25;4;7;0;11504;0;0;0;0;8;0;11151;0;0;0;0;9;0;6106;0;0;0;0
05.10.19;18:35:00;1;2582;11950;0;2;0;9503;6;0;327;18;3;0;6004;6;0;404;21;4;0;8281;1;0;122;19;5;0;19784;1;0;0;331;369;29;6;0;14542;23;9;0;433;179;28;7;0;11504;0;0;104;8;8;0;11151;0;0;155;12;9;0;6106;2;0;271;17
05.10.19;18:30:00;1;1245;11699;0;2;0;9503;6;0;352;19;3;0;6004;6;5;411;21;4;0;8281;1;0;158;20;5;0;19784;26;0;0;389;432;30;6;0;14542;23;9;0;242;453;28;7;0;11504;6;0;305;22;8;0;11151;6;0;311;21;9;0;6106;6;0;327;17
05.10.19;18:25:00;1;1779;11608;0;2;0;9503;6;0;365;19;3;1;6004;6;3;443;21;4;0;8281;1;0;180;20;5;0;19784;23;0;0;400;613;30;6;0;14542;23;13;0;558;181;29;7;0;11504;6;0;346;22;8;0;11151;6;0;354;22;9;0;6106;6;0;302;14
05.10.19;18:20:00;1;3570;11393;0;2;0;9503;6;0;366;19;3;0;6004;6;2;448;22;4;0;8281;1;0;182;20;5;3;19784;4;0;0;400;573;30;6;0;14542;23;15;0;243;537;29;7;0;11504;6;0;356;22;8;0;11151;6;0;362;22;9;0;6106;6;1;372;18
05.10.19;18:15:00;1;2218;11099;0;2;0;9503;6;0;388;20;3;3;6004;6;4;471;22;4;0;8281;1;0;202;21;5;39;19784;1;2;7;380;599;31;6;18;14542;1;18;1;483;351;30;7;0;11504;6;2;402;23;8;0;11151;6;2;407;22;9;0;6106;6;2;436;18
05.10.19;18:10:00;1;1892;10974;0;2;35;9503;6;62;366;20;3;2;6003;6;7;514;22;4;11;8281;3;12;200;21;5;137;19780;4;40;49;357;563;31;6;67;14541;4;63;12;427;214;31;7;9;11504;6;16;447;23;8;4;11151;6;8;471;22;9;2;6106;6;5;519;18
05.10.19;18:05:00;1;1410;10846;0;2;56;9501;4;92;355;21;3;0;6003;6;0;543;22;4;27;8280;3;28;200;21;5;165;19768;4;57;63;357;563;32;6;80;14535;4;60;14;427;214;31;7;30;11503;6;53;382;23;8;33;11151;6;53;382;23;9;6;6106;6;16;493;19
05.10.19;18:00:00;1;1203;10702;0;2;66;9496;4;103;356;21;3;10;6003;3;21;505;22;4;36;8277;3;37;200;21;5;187;19754;4;74;73;358;563;32;6;93;14528;4;66;16;427;214;31;7;40;11501;4;75;360;23;8;46;11148;4;74;358;23;9;3;6105;6;7;533;19
05.10.19;17:55:00;1;1638;10598;0;2;12;9490;4;19;407;21;3;8;6002;6;19;481;23;4;23;8274;3;24;200;22;5;158;19738;4;48;60;357;563;32;6;77;14520;4;68;15;427;214;31;7;3;11497;6;8;469;23;8;3;11145;6;8;471;23;9;3;6105;4;8;515;19
05.10.19;17:50:00;1;1772;10461;0;2;46;9489;4;81;356;21;3;5;6002;6;9;518;23;4;12;8272;3;12;199;22;5;158;19726;4;52;61;357;563;32;6;83;14514;4;63;15;427;214;31;7;19;11497;6;37;425;24;8;20;11144;6;35;432;23;9;7;6105;3;20;475;19
05.10.19;17:45:00;1;2030;10328;0;2;108;9485;4;147;358;22;3;43;6001;6;66;505;23;4;72;8271;3;75;205;22;5;277;19712;4;118;112;357;563;32;6;138;14507;4;108;31;427;214;31;7;90;11495;4;122;439;24;8;87;11143;4;124;431;23;9;26;6104;6;37;521;19
05.10.19;17:40:00;1;2467;10151;0;2;127;9476;4;165;371;22;3;72;5998;4;114;473;24;4;88;8266;5;92;205;22;5;302;19688;4;135;125;357;563;32;6;149;14495;4;113;33;437;214;31;7;104;11488;4;146;426;24;8;111;11136;4;146;429;24;9;22;6102;4;32;526;20
05.10.19;17:35:00;1;877;9942;0;2;156;9466;4;197;377;22;3;87;5992;4;128;493;24;4;114;8258;3;118;214;22;5;357;19664;4;155;147;363;575;32;6;193;14482;4;163;47;563;214;31;7;155;11479;4;187;447;24;8;146;11127;4;177;449;24;9;73;6100;4;107;482;20
05.10.19;17:30:00;1;1172;9873;0;2;493;9453;4;545;393;23;3;299;5984;4;349;506;24;4;394;8249;5;410;235;22;5;841;19631;4;408;359;405;636;32;6;436;14465;4;320;107;583;214;31;7;538;11466;4;587;466;24;8;531;11114;4;579;467;24;9;273;6094;4;313;530;21
05.10.19;17:25:00;1;574;9777;0;2;603;9411;4;657;400;23;3;380;5959;4;431;500;24;4;510;8216;5;531;240;23;5;1096;19558;4;548;467;407;661;32;6;578;14426;4;483;160;589;214;31;7;642;11422;4;682;463;24;8;644;11071;4;697;468;24;9;209;6071;4;237;310;12
05.10.19;17:20:00;1;517;9729;0;2;536;9361;4;590;401;23;3;331;5928;4;384;496;24;4;433;8173;5;452;231;23;5;981;19467;4;487;416;412;636;32;6;514;14379;4;395;130;590;214;31;7;526;11368;4;576;467;24;8;527;11016;4;573;465;24;9;259;6042;4;300;521;21
05.10.19;17:15:00;1;454;9686;0;2;715;9317;4;774;395;23;3;446;5900;4;503;511;24;4;586;8137;5;610;236;23;5;1178;19385;4;598;503;419;653;32;6;624;14335;4;498;170;592;214;31;7;719;11324;4;769;465;24;8;713;10972;4;765;462;24;9;364;6020;4;415;515;21
05.10.19;17:10:00;1;423;9648;0;2;706;9258;4;764;405;22;3;440;5863;4;497;501;24;4;577;8089;5;601;235;23;5;1187;19286;4;601;508;413;649;32;6;631;14283;4;514;172;593;214;31;7;725;11265;4;785;466;24;8;731;10913;4;780;459;24;9;379;5990;4;429;524;21
05.10.19;17:05:00;1;297;9613;0;2;705;9198;4;766;403;22;3;443;5827;4;500;516;24;4;582;8041;5;607;240;22;5;1207;19186;4;601;516;410;646;32;6;637;14230;4;530;179;591;214;31;7;765;11204;4;820;473;24;8;770;10852;4;820;473;24;9;397;5958;4;447;523;21
05.10.19;17:00:00;1;295;9588;0;2;431;9140;4;481;394;22;3;271;5789;4;320;499;24;4;358;7992;5;373;236;22;5;835;19087;4;414;354;408;636;32;6;446;14177;4;349;115;574;214;31;7;461;11140;4;498;474;24;8;468;10788;4;512;460;24;9;252;5925;4;293;515;20
05.10.19;16:55:00;1;305;9564;0;2;235;9103;4;278;376;22;3;142;5766;4;185;495;24;4;181;7961;5;189;224;23;5;513;19020;4;237;217;390;610;32;6;278;14141;4;219;69;564;214;31;7;224;11101;4;267;441;24;8;234;10748;4;275;449;24;9;124;5904;4;159;502;20
05.10.19;16:50:00;1;423;9538;0;2;270;9083;4;313;382;22;3;163;5754;4;208;488;24;4;220;7946;5;229;225;23;5;603;18977;4;286;255;392;628;32;6;320;14118;4;250;77;570;214;31;7;285;11082;4;331;459;24;8;279;10728;4;329;475;24;9;155;5893;4;188;514;21
05.10.19;16:45:00;1;394;9503;0;2;239;9060;4;281;370;22;3;146;5741;4;188;498;24;4;191;7927;5;199;223;23;5;519;18927;4;254;209;392;567;32;6;288;14091;4;226;69;580;214;31;7;252;11058;4;286;455;25;8;250;10705;4;290;459;24;9;135;5880;4;167;510;21
05.10.19;16:40:00;1;420;9470;0;2;223;9040;4;266;372;22;3;134;5729;4;176;493;24;4;175;7911;5;183;225;23;5;470;18884;4;230;190;391;563;32;6;262;14068;4;216;65;553;214;31;7;235;11037;4;273;466;25;8;234;10684;4;275;468;24;9;129;5869;4;163;501;21
05.10.19;16:35:00;1;490;9434;0;2;228;9022;4;269;374;23;3;138;5717;4;179;479;24;4;179;7897;5;186;224;23;5;492;18845;4;229;210;391;597;32;6;264;14046;4;195;59;563;214;31;7;245;11017;4;284;461;25;8;253;10664;4;289;454;24;9;127;5858;4;165;505;21
05.10.19;16:30:00;1;644;9392;0;2;395;9003;4;442;395;23;3;245;5706;4;292;493;25;4;336;7882;5;350;230;24;5;861;18801;4;420;365;402;631;32;6;452;14023;4;353;113;582;214;31;7;446;10996;4;490;467;25;8;445;10643;4;492;461;24;9;238;5847;4;277;511;21
05.10.19;16:25:00;1;617;9339;0;2;408;8970;4;455;380;23;3;255;5686;4;305;498;25;4;351;7854;5;366;232;24;5;888;18728;4;438;375;410;652;33;6;469;13984;4;368;123;574;214;31;7;459;10960;4;501;465;25;8;466;10606;4;515;460;25;9;250;5827;4;293;511;21
05.10.19;16:20:00;1;636;9287;0;2;200;8936;4;241;368;23;3;120;5664;4;162;496;25;4;151;7825;5;157;223;24;5;416;18658;4;198;172;362;563;33;6;240;13947;4;196;58;566;214;31;7;203;10921;4;246;433;25;8;211;10568;4;247;453;25;9;114;5807;4;146;499;21
05.10.19;16:15:00;1;715;9234;0;2;166;8919;4;205;366;23;3;90;5654;4;134;503;25;4;121;7812;5;126;214;24;5;362;18624;4;167;147;357;563;33;6;204;13927;4;172;49;570;214;32;7;165;10904;4;203;420;25;8;161;10550;4;206;459;25;9;89;5797;4;123;496;22
05.10.19;16:10:00;1;603;9175;0;2;149;8905;4;188;364;23;3;84;5647;4;126;486;25;4;108;7802;5;112;212;24;5;345;18594;4;157;145;357;563;33;6;207;13910;4;158;53;575;256;32;7;147;10890;4;184;397;26;8;148;10536;4;186;436;25;9;70;5790;4;109;488;22
05.10.19;16:05:00;1;616;9125;0;2;185;8893;4;224;368;24;3;106;5640;4;147;497;25;4;146;7793;5;152;222;25;5;434;18565;4;197;181;387;594;33;6;319;13892;4;202;137;577;496;32;7;189;10878;4;225;436;26;8;180;10524;4;227;446;25;9;100;5784;4;130;497;22
05.10.19;16:00:00;1;1074;9069;0;2;315;8878;4;362;392;24;3;190;5631;4;236;498;26;4;263;7781;5;274;228;25;5;729;18528;4;349;309;400;632;33;6;538;13865;4;297;239;580;554;32;7;311;10862;4;350;462;26;8;310;10509;4;349;461;26;9;157;5776;4;197;506;22
05.10.19;15:55:00;1;1046;8981;0;2;393;8852;4;442;390;25;3;247;5615;4;294;493;26;4;334;7759;5;348;231;25;5;819;18466;4;392;348;406;643;33;6;620;13818;4;359;288;573;557;32;7;397;10837;4;452;471;26;8;412;10484;4;458;470;26;9;220;5763;4;263;505;23
05.10.19;15:50:00;1;1820;8885;0;2;325;8819;4;372;389;25;3;202;5595;4;247;491;26;4;267;7732;5;278;226;26;5;669;18399;4;317;282;399;626;34;6;504;13768;4;291;233;576;548;32;7;342;10804;4;384;469;26;8;342;10450;4;383;473;26;9;184;5745;4;223;513;23
05.10.19;15:45:00;1;2114;8734;0;2;351;8792;4;401;386;25;3;218;5578;4;265;492;27;4;289;7709;5;301;226;26;5;721;18343;4;346;313;396;621;34;6;540;13726;4;263;211;581;547;32;7;387;10775;4;429;450;27;8;378;10421;4;426;465;26;9;197;5729;4;243;507;23
05.10.19;15:40:00;1;822;8619;0;2;646;8763;4;709;405;26;3;405;5560;4;460;507;27;4;528;7685;5;549;238;26;5;1238;18281;4;617;529;407;657;34;6;892;13679;4;510;407;585;520;32;7;726;10743;4;789;471;27;8;727;10389;4;779;471;26;9;384;5713;4;429;510;24
05.10.19;15:35:00;1;762;8549;0;2;1304;8710;4;1385;398;26;3;832;5527;4;902;508;27;4;1226;7642;5;1277;242;26;5;2552;18172;4;1353;1121;423;694;34;6;1551;13602;4;1030;581;594;344;32;7;1336;10683;4;1419;477;27;8;1347;10330;4;1427;473;26;9;724;5681;4;788;510;24
05.10.19;15:30:00;1;1088;8484;0;2;540;8605;4;592;380;26;3;346;5460;4;398;493;27;4;473;7544;5;493;238;26;5;1104;17976;4;551;470;405;648;34;6;617;13481;4;499;175;589;227;33;7;562;10576;4;596;469;27;8;564;10222;4;620;476;27;9;307;5623;4;351;492;24
05.10.19;15:25:00;1;914;8376;0;2;211;8558;4;249;368;26;3;129;5430;4;170;485;27;4;164;7504;5;170;218;27;5;445;17888;4;202;192;375;578;34;6;319;13432;4;203;122;566;435;33;7;199;10527;4;239;449;27;8;190;10173;4;235;467;27;9;62;5597;4;87;290;14
05.10.19;15:20:00;1;595;8301;0;2;288;8540;4;333;384;27;3;175;5419;4;218;492;27;4;241;7489;5;251;224;27;5;661;17851;4;312;281;391;620;35;6;492;13405;4;293;232;576;547;33;7;263;10510;4;308;455;28;8;259;10156;4;304;457;27;9;136;5588;4;174;505;24
05.10.19;15:15:00;1;2007;8242;0;2;378;8516;4;428;395;27;3;234;5405;4;282;492;28;4;325;7470;5;339;231;28;5;886;17794;4;427;374;406;641;35;6;662;13363;4;377;316;565;551;33;7;336;10489;4;378;465;28;8;335;10135;4;384;465;28;9;178;5577;4;219;507;25
05.10.19;15:10:00;1;2631;8071;0;2;499;8485;4;550;389;28;3;308;5385;4;363;506;28;4;433;7442;5;451;234;28;5;1086;17718;4;545;463;406;644;35;6;831;13306;4;452;384;590;561;33;7;513;10460;4;560;462;29;8;511;10107;4;562;464;28;9;276;5562;4;316;521;26
05.10.19;15:05:00;1;2178;7853;0;2;389;8443;4;439;387;28;3;272;5359;4;289;502;28;4;329;7406;5;343;231;29;5;807;17628;4;386;340;402;624;36;6;619;13237;4;338;273;580;550;33;7;419;10418;4;466;471;29;8;431;10064;4;483;468;28;9;232;5539;4;273;509;26
05.10.19;15:00:00;1;943;7711;0;2;353;8410;4;402;394;29;3;218;5337;4;266;499;29;4;293;7378;5;305;230;29;5;768;17562;4;368;321;395;628;36;6;576;13187;4;348;284;580;548;34;7;384;10383;4;423;441;30;8;377;10028;4;424;463;29;9;202;5520;4;241;500;27
05.10.19;14:55:00;1;1656;7642;0;2;508;8381;4;566;403;30;3;320;5319;4;372;504;29;4;441;7354;5;459;231;30;5;1103;17496;4;550;468;410;649;36;6;826;13138;4;479;415;591;558;34;7;551;10351;4;601;463;30;8;553;9997;4;598;470;30;9;285;5503;4;332;510;27
05.10.19;14:50:00;1;1279;7493;0;2;698;8339;4;760;400;31;3;443;5292;4;500;504;30;4;606;7317;5;631;239;31;5;1417;17400;4;710;604;410;676;37;6;1082;13065;4;595;525;591;565;34;7;819;10305;4;875;470;31;8;824;9951;4;876;465;30;9;445;5479;4;499;521;28
05.10.19;14:45:00;1;1143;7402;0;2;541;8280;4;596;391;32;3;339;5255;4;393;501;30;4;458;7267;5;478;231;31;5;1124;17283;4;554;476;403;655;38;6;854;12975;4;437;374;579;559;35;7;623;10236;4;670;471;31;8;617;9882;4;674;467;31;9;333;5442;4;380;514;29
05.10.19;14:40:00;1;581;7298;0;2;518;8234;4;576;393;33;3;325;5226;4;375;489;31;4;434;7227;5;452;230;32;5;1083;17189;4;532;458;408;637;38;6;831;12903;4;462;380;581;550;35;7;571;10183;4;623;466;32;8;576;9829;4;626;463;31;9;304;5414;4;351;515;29
05.10.19;14:35:00;1;541;7250;0;2;570;8190;4;630;397;35;3;359;5199;4;412;495;32;4;482;7191;5;502;232;33;5;1175;17099;4;595;495;406;628;39;6;904;12834;4;493;419;583;552;35;7;670;10135;4;719;458;33;8;659;9781;4;716;454;32;9;354;5388;4;401;505;30
05.10.19;14:30:00;1;616;7205;0;2;889;8143;4;961;394;37;3;560;5169;4;621;512;33;4;752;7150;5;784;232;34;5;1841;16995;4;945;794;411;656;39;6;1401;12755;4;741;655;584;564;36;7;1043;10079;4;1119;467;33;8;1036;9726;4;1105;463;33;9;559;5358;4;616;519;32